Москва (Запад)

Россия / Московская область     55°45′00″N   37°19′58″E
В апреле 2022 года жителям России запретили посещать сайт meteo.paraplan.net по решению Генеральной прокуратуры. Аудитория сайта уменьшилась в 10 раз. Владельцы сайта не видят смысла в поддержке погодного сервера в таких условиях. Сайт будет закрыт в октябре.
темп.,
°C
ветер,
м/с
пор.,
м/с
влажн.,
%
обл.,
%
осадки,
мм/ч
давл.,
гПа
погр.,
м
5 октября, ср
ср500:00+7ю4784100 0.4 1009894
03:00+7ю3783100 0.6 1010910
06:00+6ю3588100 0.3 1010958
09:00+7ююз3486100 0.6 1011437
12:00+7з3579100 0.3 1013730
15:00+8з457098 0.4 10141011
18:00+7з4680100 0.3 1016688
21:00+6з3782100 0.3 1017522
6 октября, чт
чт600:00+6з2686100 0.1 1018293
03:00+7з2689100 0.1 1018289
06:00+5зюз26948 0.0 1018199
09:00+7юз2589100 0.0 1018203
12:00+10юз248340 0.0 1018381
15:00+12юз378071 0.0 1017665
18:00+10юз4108940 0.0 1016521
21:00+10юз413935 0.0 1015487
7 октября, пт
пт700:00+9зюз413947 0.0 1015469
03:00+11з5139097 0.0 1015856
06:00+10зсз5138843 0.0 1017769
09:00+10зсз51178100 0.0 10191289
12:00+11з61167100 0.0 10211443
15:00+13з610601 0.0 10211285
18:00+11з410700 0.0 1022851
21:00+9з411815 0.0 1023498
8 октября, сб
сб800:00+8зюз39885 0.0 1024277
03:00+7зюз389125 0.0 1024234
06:00+7юз399181 0.0 1024267
09:00+8юз498326 0.0 1023307
12:00+13юз476343 0.0 1022721
15:00+14юз575465 0.0 1020941
18:00+12ююз41068100 0.0 1020693
21:00+11ююз51273100 0.0 1019639
9 октября, вс
вс900:00+10юз51474100 0.0 1018615
03:00+9ююз51378100 0.0 1016525
06:00+9ююз41378100 0.0 1015528
09:00+10юз41076100 0.0 1015524
12:00+10зюз4880100 0.1 1015480
15:00+10зюз3988100 1.3 1015489
18:00+10зюз3889100 0.4 1016520
21:00+8з388776 0.5 1018406